Location: Bamazo
(6.7448°N, 10.8189°W)
Time: 23:55:41
(UTC+00:00)

Cosmos 1464 Rocket - Pass Details

Date: 18 September 2020
Orbit: 953 x 1000 km, 82.9° (Epoch: 21 October)

Event Time Altitude Azimuth Distance (km) Brightness Sun altitude
Rises 19:30:11 0° 173° (S) 3,634 6.9 -13.0°
Reaches altitude 10° 19:32:45 10° 168° (SSE) 2,683 6.2 -13.6°
Maximum altitude 19:38:41 53° 92° (E) 1,159 4.0 -15.1°
Drops below altitude 10° 19:44:36 10° 17° (NNE) 2,672 6.2 -16.6°
Sets 19:47:08 0° 13° (NNE) 3,618 6.9 -17.2°
